PA3CPS Weather Reports


time (UTC)temp
C
wind
direction
speed
KPH
gust
KPH
rain 1hr
cm
rain 24hr
cm
rain mn
cm
humidity
%
barometer
mb
20260503005032 13 320 0.0 0.0 0.03 0.10 0.03 89 1011.8
20260503004531 14 320 0.0 0.0 0.03 0.10 0.03 89 1011.7
20260503004031 14 320 0.0 0.0 0.03 0.10 0.03 89 1012.0
20260503003532 14 320 0.0 4.8 0.03 0.10 0.03 89 1012.0
20260503003031 14 320 1.6 8.0 0.03 0.10 0.03 89 1012.0
20260503002531 14 291 3.2 11.3 0.03 0.10 0.03 89 1011.9
20260503002031 14 306 3.2 14.5 0.03 0.10 0.03 89 1011.9
20260503001531 14 328 4.8 14.5 0.03 0.10 0.03 89 1011.8
20260503001031 14 304 8.0 12.9 0.03 0.10 0.03 89 1011.9
20260503000530 14 340 3.2 6.4 0.03 0.10 0.03 90 1012.3
20260503000032 14 270 3.2 11.3 0.03 0.10 0.03 90 1012.7
20260502235533 14 268 6.4 11.3 0.03 0.08 0.03 90 1012.9
20260502235031 14 230 3.2 8.0 0.00 0.08 0.00 89 1013.1
20260502234530 14 170 0.0 3.2 0.00 0.08 0.00 89 1013.1
20260502234028 14 170 0.0 3.2 0.00 0.08 0.00 89 1013.1
20260502233526 14 170 1.6 4.8 0.00 0.08 0.00 89 1013.4
20260502233019 14 170 1.6 4.8 0.00 0.08 0.00 89 1013.5
20260502232516 14 170 0.0 3.2 0.00 0.08 0.00 89 1013.7
20260502232010 14 170 1.6 4.8 0.00 0.08 0.00 88 1013.8
20260502231509 14 170 0.0 4.8 0.00 0.08 0.00 88 1013.6
20260502231008 14 197 1.6 6.4 0.00 0.08 0.00 88 1013.8
20260502230507 14 168 3.2 6.4 0.00 0.08 0.00 88 1013.8
20260502230007 14 194 0.0 6.4 0.00 0.08 0.00 88 1013.7
20260502225505 14 202 4.8 6.4 0.00 0.08 0.00 88 1013.9
20260502225003 14 222 3.2 6.4 0.00 0.08 0.00 87 1013.9
20260502224502 14 212 3.2 4.8 0.00 0.08 0.00 87 1013.8
20260502224007 14 230 3.2 4.8 0.00 0.08 0.00 87 1013.6
20260502223504 14 215 1.6 4.8 0.00 0.08 0.00 86 1013.3
20260502223005 14 200 3.2 4.8 0.00 0.08 0.00 86 1013.7
20260502222502 14 14 1.6 3.2 0.00 0.08 0.00 86 1013.2
20260502222003 15 14 0.0 0.0 0.00 0.08 0.00 86 1012.9
20260502221502 15 14 0.0 4.8 0.00 0.08 0.00 86 1012.8
20260502221001 15 14 1.6 4.8 0.00 0.08 0.00 86 1012.7
20260502220500 15 7 3.2 4.8 0.03 0.08 0.00 86 1012.8
20260502215957 15 8 3.2 4.8 0.08 0.00 0.08 86 1012.8
20260502215451 15 11 3.2 4.8 0.08 0.00 0.08 86 1012.9
20260502214950 15 23 0.0 3.2 0.08 0.00 0.08 86 1013.0
20260502214445 15 23 0.0 1.6 0.08 0.00 0.08 86 1013.1
20260502213942 15 23 0.0 3.2 0.08 0.00 0.08 85 1013.3
20260502213433 15 23 0.0 3.2 0.08 0.00 0.08 85 1013.2
20260502212935 15 23 1.6 1.6 0.08 0.00 0.08 85 1013.4
20260502212432 15 23 0.0 3.2 0.08 0.00 0.08 84 1013.6
20260502211935 15 23 0.0 3.2 0.08 0.00 0.08 84 1013.6
20260502211431 16 23 0.0 3.2 0.08 0.00 0.08 82 1013.7
20260502210931 16 23 0.0 3.2 0.08 0.00 0.08 81 1013.9
20260502210423 16 45 0.0 4.8 0.05 0.00 0.05 78 1014.0
20260502205919 16 163 0.0 4.8 0.00 0.00 0.00 75 1014.3
20260502205417 16 109 0.0 11.3 0.00 0.00 0.00 76 1014.4
20260502204916 16 120 1.6 11.3 0.00 0.00 0.00 77 1014.3
20260502204415 16 129 3.2 4.8 0.00 0.00 0.00 78 1014.3
20260502203914 16 356 0.0 3.2 0.00 0.00 0.00 80 1014.1
20260502203414 16 356 0.0 1.6 0.00 0.00 0.00 80 1014.1
20260502202907 16 356 0.0 3.2 0.00 0.00 0.00 79 1013.9
20260502202407 16 356 1.6 3.2 0.00 0.00 0.00 79 1013.9
20260502201908 16 356 0.0 3.2 0.00 0.00 0.00 78 1013.9
20260502201405 16 356 0.0 0.0 0.00 0.00 0.00 78 1013.9
20260502200906 16 356 0.0 0.0 0.00 0.00 0.00 77 1014.1
20260502200406 17 356 0.0 1.6 0.00 0.00 0.00 76 1014.1
20260502195920 17 356 0.0 1.6 0.00 0.00 0.00 76 1014.1
20260502195406 17 356 0.0 4.8 0.00 0.00 0.00 76 1014.2
20260502194904 17 356 0.0 6.4 0.00 0.00 0.00 76 1014.2
20260502194402 17 341 3.2 6.4 0.00 0.00 0.00 76 1014.2
20260502193903 17 10 1.6 6.4 0.00 0.00 0.00 76 1014.3
20260502193402 17 346 1.6 4.8 0.00 0.00 0.00 76 1014.2
20260502192902 17 341 1.6 4.8 0.00 0.00 0.00 75 1014.3
20260502192403 17 335 1.6 4.8 0.00 0.00 0.00 75 1014.2
20260502191903 17 306 1.6 4.8 0.00 0.00 0.00 75 1014.2
20260502191402 18 345 1.6 4.8 0.00 0.00 0.00 75 1014.1
20260502190903 18 319 1.6 4.8 0.00 0.00 0.00 75 1014.1
20260502190402 18 326 1.6 4.8 0.00 0.00 0.00 74 1014.2
20260502185902 18 335 3.2 4.8 0.00 0.00 0.00 74 1014.0
20260502185403 18 276 1.6 4.8 0.00 0.00 0.00 73 1014.0
20260502184902 18 320 1.6 6.4 0.00 0.00 0.00 73 1014.1
20260502184401 18 324 0.0 6.4 0.00 0.00 0.00 72 1014.0
20260502183900 18 276 3.2 6.4 0.00 0.00 0.00 72 1014.1
20260502183358 18 308 1.6 6.4 0.00 0.00 0.00 71 1014.0
20260502182855 19 350 3.2 12.9 0.00 0.00 0.00 71 1014.1
20260502182353 19 343 4.8 12.9 0.00 0.00 0.00 71 1014.1
20260502181852 19 294 1.6 9.7 0.00 0.00 0.00 71 1014.1
20260502181351 20 297 1.6 11.3 0.00 0.00 0.00 72 1014.1
20260502180851 20 19 4.8 11.3 0.00 0.00 0.00 71 1014.2
20260502180341 20 338 4.8 16.1 0.00 0.00 0.00 70 1014.1
20260502170332 23 283 4.8 9.7 0.00 0.00 0.00 56 1014.3
20260502164327 23 230 6.4 9.7 0.00 0.00 0.00 55 1014.3
20260502163824 23 222 3.2 9.7 0.00 0.00 0.00 55 1014.4
20260502163323 23 111 4.8 12.9 0.00 0.00 0.00 55 1014.4
20260502162822 23 197 4.8 12.9 0.00 0.00 0.00 54 1014.5
20260502162315 23 172 4.8 11.3 0.00 0.00 0.00 55 1014.5
20260502161815 23 146 4.8 9.7 0.00 0.00 0.00 54 1014.6
20260502161313 23 208 4.8 8.0 0.00 0.00 0.00 55 1014.7
20260502160813 23 221 4.8 14.5 0.00 0.00 0.00 55 1014.6
20260502160313 24 218 8.0 14.5 0.00 0.00 0.00 54 1014.7
20260502152305 24 209 4.8 9.7 0.00 0.00 0.00 55 1015.0
20260502151802 23 286 3.2 12.9 0.00 0.00 0.00 55 1014.9
20260502151302 23 160 8.0 17.7 0.00 0.00 0.00 55 1015.0
20260502150802 23 265 6.4 17.7 0.00 0.00 0.00 55 1015.0
20260502150303 23 235 3.2 9.7 0.00 0.00 0.00 55 1015.2
20260502130725 23 170 6.4 17.7 0.00 0.00 0.00 55 1016.2
20260502130223 23 265 6.4 22.5 0.00 0.00 0.00 56 1016.2
20260502123717 23 176 4.8 16.1 0.00 0.00 0.00 56 1016.2
20260502123215 23 207 4.8 17.7 0.00 0.00 0.00 55 1016.3
20260502122714 23 235 4.8 17.7 0.00 0.00 0.00 55 1016.4
20260502122213 23 188 6.4 14.5 0.00 0.00 0.00 54 1016.3
20260502121712 23 202 6.4 14.5 0.00 0.00 0.00 53 1016.5
20260502121209 23 170 4.8 16.1 0.00 0.00 0.00 54 1016.6
20260502120707 23 196 9.7 19.3 0.00 0.00 0.00 55 1016.6
20260502120207 23 212 9.7 19.3 0.00 0.00 0.00 53 1016.6
20260502115705 23 180 9.7 16.1 0.00 0.00 0.00 52 1016.7
20260502115205 23 187 4.8 17.7 0.00 0.00 0.00 52 1016.7
20260502114707 24 179 11.3 20.9 0.00 0.00 0.00 50 1016.8
20260502114204 23 261 8.0 20.9 0.00 0.00 0.00 53 1016.8
20260502113705 23 201 6.4 17.7 0.00 0.00 0.00 51 1016.8
20260502113204 23 222 6.4 17.7 0.00 0.00 0.00 53 1017.0
20260502112710 24 245 9.7 17.7 0.00 0.00 0.00 49 1016.9
20260502112204 23 143 9.7 17.7 0.00 0.00 0.00 51 1016.9
20260502111702 23 212 11.3 17.7 0.00 0.00 0.00 51 1017.0
20260502111202 23 245 6.4 20.9 0.00 0.00 0.00 53 1016.9
20260502110659 23 157 8.0 20.9 0.00 0.00 0.00 51 1017.0
20260502110211 23 152 9.7 16.1 0.00 0.00 0.00 50 1016.8
20260502105657 23 222 8.0 16.1 0.00 0.00 0.00 52 1016.9
20260502105154 23 180 6.4 16.1 0.00 0.00 0.00 48 1017.0
20260502104653 23 168 6.4 12.9 0.00 0.00 0.00 47 1017.0
20260502104150 22 197 4.8 14.5 0.00 0.00 0.00 48 1016.9
20260502103648 22 137 6.4 14.5 0.00 0.00 0.00 47 1017.0
20260502103148 22 149 6.4 12.9 0.00 0.00 0.00 46 1017.0
20260502102647 22 199 3.2 12.9 0.00 0.00 0.00 46 1017.0
20260502102144 22 189 6.4 17.7 0.00 0.00 0.00 46 1017.2
20260502101645 22 180 11.3 17.7 0.00 0.00 0.00 45 1017.3
20260502101139 21 178 8.0 17.7 0.00 0.00 0.00 45 1017.2
20260502100641 21 136 9.7 17.7 0.00 0.00 0.00 46 1017.3
20260502100134 21 188 6.4 16.1 0.00 0.00 0.00 46 1017.3
20260502091120 20 145 8.0 12.9 0.00 0.00 0.00 47 1017.6
20260502090621 20 206 6.4 12.9 0.00 0.00 0.00 46 1017.4
20260502090118 19 152 6.4 14.5 0.00 0.00 0.00 49 1017.5
20260502080110 17 125 6.4 12.9 0.00 0.00 0.00 52 1017.4
20260502071054 17 145 3.2 12.9 0.00 0.00 0.00 53 1017.7
20260502070549 16 193 8.0 12.9 0.00 0.00 0.00 54 1017.8
20260502070101 16 130 4.8 14.5 0.00 0.00 0.00 55 1017.8
20260502065532 16 157 4.8 14.5 0.00 0.00 0.00 56 1018.0
20260502065031 16 163 8.0 16.1 0.00 0.00 0.00 56 1017.9
20260502064532 15 174 6.4 16.1 0.00 0.00 0.00 57 1018.0
20260502064030 15 109 4.8 11.3 0.00 0.00 0.00 57 1018.0
20260502063528 15 135 3.2 14.5 0.00 0.00 0.00 58 1017.9
20260502063027 15 104 6.4 14.5 0.00 0.00 0.00 57 1017.8
20260502062525 15 116 6.4 16.1 0.00 0.00 0.00 57 1017.8
20260502062024 15 77 4.8 16.1 0.00 0.00 0.00 57 1017.7
20260502061523 15 188 4.8 14.5 0.00 0.00 0.00 58 1017.7
20260502061021 14 142 1.6 8.0 0.00 0.00 0.00 60 1017.6
20260502060521 13 161 4.8 9.7 0.00 0.00 0.00 61 1017.7
20260502060023 12 181 3.2 9.7 0.00 0.00 0.00 64 1017.7
20260502055515 12 136 3.2 8.0 0.00 0.00 0.00 64 1017.6
20260502055011 12 173 1.6 6.4 0.00 0.00 0.00 64 1017.6
20260502054512 12 166 1.6 6.4 0.00 0.00 0.00 65 1017.5
20260502054003 12 119 1.6 11.3 0.00 0.00 0.00 65 1017.4
20260502053505 12 137 4.8 11.3 0.00 0.00 0.00 65 1017.5
20260502053018 11 192 3.2 9.7 0.00 0.00 0.00 65 1017.7
20260502052516 11 129 3.2 12.9 0.00 0.00 0.00 66 1017.7
20260502052004 11 141 3.2 12.9 0.00 0.00 0.00 66 1017.7
20260502051519 11 147 1.6 11.3 0.00 0.00 0.00 66 1017.7
20260502051004 11 180 1.6 11.3 0.00 0.00 0.00 67 1017.7
20260502050505 11 146 4.8 11.3 0.00 0.00 0.00 67 1017.8
20260502050008 11 133 3.2 6.4 0.00 0.00 0.00 66 1017.8
20260502045504 11 89 1.6 6.4 0.00 0.00 0.00 66 1017.8
20260502045003 11 168 0.0 4.8 0.00 0.00 0.00 65 1017.9
20260502044503 11 163 3.2 4.8 0.00 0.00 0.00 65 1017.9
20260502043958 11 180 0.0 4.8 0.00 0.00 0.00 65 1017.8
20260502043451 11 159 0.0 3.2 0.00 0.00 0.00 65 1017.9
20260502042950 11 147 0.0 3.2 0.00 0.00 0.00 65 1017.9
20260502042447 11 147 0.0 6.4 0.00 0.00 0.00 65 1017.8
20260502041946 11 116 1.6 6.4 0.00 0.00 0.00 65 1017.8
20260502041450 11 154 1.6 6.4 0.00 0.00 0.00 65 1017.8
20260502040945 11 141 1.6 4.8 0.00 0.00 0.00 65 1017.9
20260502040439 11 158 1.6 8.0 0.00 0.00 0.00 65 1018.0
20260502035934 11 143 1.6 8.0 0.00 0.00 0.00 65 1018.0
20260502035434 11 114 0.0 6.4 0.00 0.00 0.00 65 1018.1
20260502034938 11 164 0.0 6.4 0.00 0.00 0.00 65 1018.1
20260502034431 11 135 1.6 6.4 0.00 0.00 0.00 65 1018.1
20260502033931 11 137 0.0 4.8 0.00 0.00 0.00 64 1018.2
20260502033431 11 141 0.0 4.8 0.00 0.00 0.00 64 1018.2
20260502032931 11 145 0.0 6.4 0.00 0.00 0.00 63 1018.3
20260502032434 11 156 1.6 6.4 0.00 0.00 0.00 63 1018.3
20260502031931 11 155 1.6 4.8 0.00 0.00 0.00 63 1018.4
20260502031431 11 158 0.0 11.3 0.00 0.00 0.00 62 1018.3
20260502030931 11 147 4.8 11.3 0.00 0.00 0.00 63 1018.4
20260502030431 11 168 3.2 6.4 0.00 0.00 0.00 63 1018.5
20260502025931 11 144 1.6 6.4 0.00 0.00 0.00 64 1018.5
20260502025431 11 181 1.6 3.2 0.00 0.00 0.00 65 1018.4
20260502024931 11 167 0.0 3.2 0.00 0.00 0.00 65 1018.5
20260502024431 11 138 0.0 3.2 0.00 0.00 0.00 64 1018.6
20260502023934 11 138 0.0 1.6 0.00 0.00 0.00 63 1018.5
20260502023431 11 138 0.0 0.0 0.00 0.00 0.00 63 1018.6
20260502022931 11 138 0.0 3.2 0.00 0.00 0.00 63 1018.6
20260502022432 11 138 0.0 4.8 0.00 0.00 0.00 62 1018.7
20260502021931 12 138 0.0 4.8 0.00 0.00 0.00 61 1018.7
20260502021435 12 147 1.6 3.2 0.00 0.00 0.00 61 1018.8
20260502020929 12 154 0.0 6.4 0.00 0.00 0.00 61 1018.8
20260502020428 12 111 1.6 6.4 0.00 0.00 0.00 60 1018.9
20260502015926 12 170 1.6 4.8 0.00 0.00 0.00 60 1018.8
20260502015412 12 175 0.0 4.8 0.00 0.00 0.00 60 1018.9
20260502014917 12 170 0.0 4.8 0.00 0.00 0.00 59 1018.9
20260502014410 12 140 1.6 4.8 0.00 0.00 0.00 59 1018.9
20260502013910 12 117 0.0 9.7 0.00 0.00 0.00 59 1018.9
20260502013409 13 153 1.6 9.7 0.00 0.00 0.00 58 1018.9
20260502012905 13 143 0.0 4.8 0.00 0.00 0.00 58 1019.1
20260502012408 13 170 1.6 6.4 0.00 0.00 0.00 58 1019.0
20260502011905 13 156 1.6 6.4 0.00 0.00 0.00 57 1019.1
20260502011402 13 178 1.6 6.4 0.00 0.00 0.00 57 1019.1
20260502010857 13 145 1.6 6.4 0.00 0.00 0.00 58 1019.1
20260502010356 13 117 0.0 4.8 0.00 0.00 0.00 58 1019.2
20260502005845 13 154 1.6 4.8 0.00 0.00 0.00 57 1019.3
20260502005344 13 148 0.0 4.8 0.00 0.00 0.00 57 1019.4